Weather History for KSDY - April, 2013

Change the Weather History Date:

Monday, April 22, 2013

  Actual Average Record
Temperature  
Mean Temperature 27 °F -  
Max Temperature 35 °F 64 °F 89 °F (1989)
Min Temperature 19 °F 32 °F 12 °F (1951)
Degree Days  
Heating Degree Days 38    
Moisture  
Dew Point 15 °F    
Average Humidity 62    
Maximum Humidity 93    
Minimum Humidity 38    
Precipitation  
Precipitation 0.00 in - - ()
Sea Level Pressure  
Sea Level Pressure 30.41 in    
Wind  
Wind Speed 8 mph (NW)    
Max Wind Speed 13 mph    
Max Gust Speed 20 mph    
Visibility 10 miles    
Events      
Averages and records for this station are not official NWS values.
T = Trace of Precipitation, MM = Missing Value Source: NWS Daily Summary

Daily Weather History Graph

Daily Weather History Graph

Search for Another Location

Airport or City:

Trip Planner

Search our weather history database for the weather conditions in past years. The results will help you decide how hot, cold, wet, or windy it might be!

Date:

Astronomy

Apr. 22, 2013 Rise Set
Actual Time 5:54 AM MDT 7:56 PM MDT
Civil Twilight 5:21 AM MDT 8:30 PM MDT
Nautical Twilight 4:39 AM MDT 9:11 PM MDT
Astronomical Twilight 3:54 AM MDT 9:57 PM MDT
Moon 4:36 PM MDT (4/22) 4:04 AM MDT (4/22)
Length of Visible Light 15h 09m
Length of Day
14h 02m
Waxing Gibbous, 88% of the Moon is Illuminated
Apr 22
Waxing Gibbous
Apr 25
Full
May 2
Last Quarter
May 9
New
May 17
First Quarter

Hourly Weather History & Observations

Time (MDT) Temp. Windchill Dew Point Humidity Pressure Visibility Wind Dir Wind Speed Gust Speed Precip Events Conditions
12:15 AM 24.8 °F 17.9 °F 17.6 °F 74% 30.32 in 10.0 mi NNW 5.8 mph - N/A   Mostly Cloudy
12:55 AM 26.6 °F 19.1 °F 19.4 °F 74% 30.34 in 10.0 mi North 6.9 mph - N/A   Overcast
1:15 AM 26.6 °F 17.5 °F 17.6 °F 69% 30.34 in 10.0 mi North 9.2 mph - N/A   Overcast
1:35 AM 26.6 °F 17.5 °F 17.6 °F 69% 30.34 in 10.0 mi North 9.2 mph - N/A   Overcast
1:55 AM 24.8 °F 16.1 °F 17.6 °F 74% 30.34 in 10.0 mi North 8.1 mph - N/A   Mostly Cloudy
2:15 AM 24.8 °F 17.9 °F 17.6 °F 74% 30.35 in 10.0 mi North 5.8 mph - N/A   Scattered Clouds
2:35 AM 21.2 °F 14.9 °F 15.8 °F 80% 30.35 in 10.0 mi NNW 4.6 mph - N/A   Overcast
3:15 AM 21.2 °F 10.9 °F 17.6 °F 86% 30.35 in 10.0 mi NNW 9.2 mph - N/A   Overcast
3:35 AM 21.2 °F 10.9 °F 17.6 °F 86% 30.35 in 10.0 mi NNW 9.2 mph - N/A   Overcast
3:55 AM 23.0 °F 15.8 °F 17.6 °F 80% 30.36 in 10.0 mi NNW 5.8 mph - N/A   Mostly Cloudy
4:35 AM 21.2 °F 12.6 °F 15.8 °F 80% 30.37 in 10.0 mi NNW 6.9 mph - N/A   Mostly Cloudy
5:15 AM 21.2 °F 10.9 °F 15.8 °F 80% 30.37 in 10.0 mi NNW 9.2 mph - N/A   Clear
5:35 AM 19.4 °F 12.8 °F 15.8 °F 86% 30.38 in 10.0 mi WNW 4.6 mph - N/A   Clear
5:55 AM 19.4 °F 10.4 °F 17.6 °F 93% 30.38 in 10.0 mi NW 6.9 mph - N/A   Clear
6:15 AM 19.4 °F 10.4 °F 17.6 °F 93% 30.40 in 10.0 mi NW 6.9 mph - N/A   Clear
6:55 AM 21.2 °F 10.1 °F 17.6 °F 86% 30.41 in 10.0 mi NW 10.4 mph - N/A   Clear
7:15 AM 21.2 °F 10.9 °F 17.6 °F 86% 30.43 in 10.0 mi NW 9.2 mph - N/A   Clear
7:35 AM 23.0 °F 11.7 °F 17.6 °F 80% 30.44 in 10.0 mi NNW 11.5 mph - N/A   Clear
7:56 AM 24.8 °F 15.3 °F 17.6 °F 74% 30.44 in 10.0 mi NNW 9.2 mph - N/A   Clear
8:15 AM 24.8 °F 14.6 °F 17.6 °F 74% 30.45 in 10.0 mi NNW 10.4 mph - N/A   Clear
8:35 AM 24.8 °F 15.3 °F 17.6 °F 74% 30.45 in 10.0 mi North 9.2 mph - N/A   Clear
8:55 AM 24.8 °F 15.3 °F 17.6 °F 74% 30.46 in 10.0 mi NNW 9.2 mph - N/A   Clear
9:15 AM 26.6 °F 22.6 °F 17.6 °F 69% 30.46 in 10.0 mi NNW 3.5 mph - N/A   Mostly Cloudy
9:35 AM 26.6 °F 17.5 °F 15.8 °F 64% 30.46 in 10.0 mi NW 9.2 mph - N/A   Mostly Cloudy
10:15 AM 26.6 °F 19.1 °F 15.8 °F 64% 30.47 in 10.0 mi NNW 6.9 mph - N/A   Overcast
10:35 AM 28.4 °F 22.2 °F 15.8 °F 59% 30.47 in 10.0 mi NW 5.8 mph - N/A   Overcast
10:55 AM 28.4 °F 21.2 °F 14.0 °F 55% 30.47 in 10.0 mi NNW 6.9 mph - N/A   Overcast
11:15 AM 28.4 °F 18.0 °F 15.8 °F 59% 30.47 in 10.0 mi North 12.7 mph 16.1 mph N/A   Overcast
11:35 AM 28.4 °F 18.5 °F 14.0 °F 55% 30.47 in 10.0 mi NNW 11.5 mph - N/A   Overcast
11:55 AM 30.2 °F 21.3 °F 14.0 °F 51% 30.47 in 10.0 mi NNW 10.4 mph - N/A   Overcast
12:15 PM 30.2 °F 20.2 °F 15.8 °F 55% 30.47 in 10.0 mi NW 12.7 mph - N/A   Overcast
12:35 PM 30.2 °F 20.2 °F 14.0 °F 51% 30.46 in 10.0 mi North 12.7 mph 17.3 mph N/A   Overcast
12:55 PM 32.0 °F 23.0 °F 14.0 °F 48% 30.46 in 10.0 mi NW 11.5 mph - N/A   Overcast
1:35 PM 33.8 °F 25.8 °F 14.0 °F 44% 30.46 in 10.0 mi WNW 10.4 mph - N/A   Overcast
1:55 PM 33.8 °F 25.3 °F 14.0 °F 44% 30.45 in 10.0 mi NW 11.5 mph 17.3 mph N/A   Mostly Cloudy
2:15 PM 33.8 °F 25.3 °F 14.0 °F 44% 30.45 in 10.0 mi North 11.5 mph - N/A   Mostly Cloudy
2:35 PM 33.8 °F 27.0 °F 14.0 °F 44% 30.45 in 10.0 mi NW 8.1 mph 16.1 mph N/A   Mostly Cloudy
2:55 PM 35.6 °F 28.0 °F 15.8 °F 44% 30.44 in 10.0 mi WNW 10.4 mph 19.6 mph N/A   Mostly Cloudy
3:15 PM 33.8 °F 24.8 °F 12.2 °F 41% 30.44 in 10.0 mi NNW 12.7 mph - N/A   Scattered Clouds
3:36 PM 35.6 °F 27.1 °F 12.2 °F 38% 30.43 in 10.0 mi NW 12.7 mph 16.1 mph N/A   Mostly Cloudy
3:55 PM 35.6 °F 28.6 °F 12.2 °F 38% 30.43 in 10.0 mi NNW 9.2 mph 16.1 mph N/A   Overcast
4:35 PM 33.8 °F 26.4 °F 12.2 °F 41% 30.42 in 10.0 mi North 9.2 mph - N/A   Partly Cloudy
4:55 PM 35.6 °F 28.0 °F 12.2 °F 38% 30.42 in 10.0 mi NNW 10.4 mph - N/A   Clear
5:15 PM 33.8 °F 26.4 °F 12.2 °F 41% 30.42 in 10.0 mi NNW 9.2 mph - N/A   Mostly Cloudy
5:35 PM 35.6 °F 29.2 °F 12.2 °F 38% 30.41 in 10.0 mi NNW 8.1 mph - N/A   Partly Cloudy
5:55 PM 35.6 °F 28.0 °F 12.2 °F 38% 30.41 in 10.0 mi NW 10.4 mph - N/A   Partly Cloudy
6:15 PM 35.6 °F 30.7 °F 12.2 °F 38% 30.41 in 10.0 mi NW 5.8 mph - N/A   Scattered Clouds
6:35 PM 35.6 °F 29.2 °F 14.0 °F 41% 30.41 in 10.0 mi NNW 8.1 mph - N/A   Overcast
6:55 PM 35.6 °F 31.7 °F 12.2 °F 38% 30.40 in 10.0 mi NNW 4.6 mph - N/A   Mostly Cloudy
7:15 PM 35.6 °F - 12.2 °F 38% 30.40 in 10.0 mi Calm Calm - N/A   Partly Cloudy
7:35 PM 33.8 °F - 14.0 °F 44% 30.40 in 10.0 mi Calm Calm - N/A   Clear
7:55 PM 30.2 °F - 14.0 °F 51% 30.40 in 10.0 mi Calm Calm - N/A   Clear
8:15 PM 26.6 °F - 12.2 °F 55% 30.40 in 10.0 mi Calm Calm - N/A   Clear
8:35 PM 24.8 °F - 14.0 °F 64% 30.40 in 10.0 mi Calm Calm - N/A   Clear
9:15 PM 24.8 °F 19.1 °F 14.0 °F 64% 30.40 in 10.0 mi WSW 4.6 mph - N/A   Clear
9:55 PM 26.6 °F 21.2 °F 17.6 °F 69% 30.40 in 10.0 mi SW 4.6 mph - N/A   Clear
10:15 PM 24.8 °F 20.5 °F 17.6 °F 74% 30.39 in 10.0 mi SW 3.5 mph - N/A   Clear
10:35 PM 24.8 °F 19.1 °F 19.4 °F 80% 30.39 in 10.0 mi SW 4.6 mph - N/A   Clear
10:55 PM 24.8 °F 17.9 °F 15.8 °F 69% 30.38 in 10.0 mi SW 5.8 mph - N/A   Clear
11:15 PM 23.0 °F 15.8 °F 15.8 °F 74% 30.38 in 10.0 mi SW 5.8 mph - N/A   Clear
11:35 PM 21.2 °F 14.9 °F 14.0 °F 74% 30.37 in 10.0 mi SW 4.6 mph - N/A   Clear
11:55 PM 21.2 °F 12.6 °F 15.8 °F 80% 30.36 in 10.0 mi SSW 6.9 mph - N/A   Clear